Location: Unspecified
(49.2170°N, 0.0000°E)
Time: 15:01:35
(UTC+00:00)

Tiros 1 despin weight - Pass Details

Date: 23 January 2021
Orbit: 593 x 642 km, 48.2° (Epoch: 07 March)

Event Time Altitude Azimuth Distance (km) Brightness Sun altitude
Rises 14:56:17 0° 227° (SW) 2,882 ? 12.4°
Reaches altitude 10° 14:58:44 10° 219° (SW) 1,970 ? 12.1°
Maximum altitude 15:02:52 36° 152° (SSE) 968 ? 11.7°
Drops below altitude 10° 15:06:58 10° 86° (E) 1,950 ? 11.3°
Sets 15:09:22 0° 78° (ENE) 2,848 ? 11.0°
